TimeEDT,TemperatureF,Dew PointF,Humidity,Sea Level PressureIn,VisibilityMPH,Wind Direction,Wind SpeedMPH,Gust SpeedMPH,PrecipitationIn,Events,Conditions,WindDirDegrees,DateUTC
12:53 AM,43.0,39.9,89,29.54,10.0,Calm,Calm,-,0.00,Rain,Light Rain,0,2012-11-03 04:53:00
1:53 AM,43.0,39.0,86,29.54,10.0,Calm,Calm,-,0.00,,Overcast,0,2012-11-03 05:53:00
2:53 AM,39.9,37.9,93,29.54,4.0,Calm,Calm,-,N/A,,Partly Cloudy,0,2012-11-03 06:53:00
3:53 AM,39.0,36.0,89,29.54,10.0,NW,3.5,-,N/A,,Partly Cloudy,310,2012-11-03 07:53:00
4:53 AM,36.0,34.0,93,29.55,10.0,Calm,Calm,-,N/A,,Clear,0,2012-11-03 08:53:00
5:53 AM,35.1,33.1,92,29.55,10.0,Calm,Calm,-,N/A,,Overcast,0,2012-11-03 09:53:00
6:53 AM,35.1,33.1,92,29.56,9.0,Calm,Calm,-,N/A,,Overcast,0,2012-11-03 10:53:00
7:53 AM,36.0,34.0,93,29.58,9.0,Calm,Calm,-,N/A,,Clear,0,2012-11-03 11:53:00
8:53 AM,42.1,37.0,82,29.58,10.0,NW,6.9,-,N/A,,Clear,320,2012-11-03 12:53:00
9:53 AM,43.0,37.0,80,29.58,10.0,NW,5.8,-,N/A,,Partly Cloudy,310,2012-11-03 13:53:00
10:35 AM,46.4,39.2,76,29.56,10.0,Variable,4.6,-,N/A,,Mostly Cloudy,0,2012-11-03 14:35:00
10:53 AM,45.0,39.0,80,29.58,10.0,NW,4.6,-,N/A,,Overcast,310,2012-11-03 14:53:00
11:11 AM,46.4,39.2,76,29.56,10.0,NNW,6.9,-,N/A,,Overcast,340,2012-11-03 15:11:00
11:31 AM,46.4,39.2,76,29.56,10.0,NW,5.8,-,N/A,,Overcast,320,2012-11-03 15:31:00
11:53 AM,46.0,39.0,76,29.56,10.0,WNW,5.8,-,N/A,,Overcast,300,2012-11-03 15:53:00
12:14 PM,46.4,39.2,76,29.54,10.0,NW,5.8,-,N/A,,Overcast,320,2012-11-03 16:14:00
12:45 PM,46.4,39.2,76,29.54,10.0,WNW,8.1,-,N/A,,Overcast,300,2012-11-03 16:45:00
12:53 PM,46.9,39.0,74,29.55,10.0,NW,6.9,-,N/A,,Overcast,310,2012-11-03 16:53:00
1:07 PM,46.4,39.2,76,29.53,10.0,NW,5.8,-,N/A,,Overcast,320,2012-11-03 17:07:00
1:15 PM,46.4,39.2,76,29.53,10.0,NNW,6.9,-,N/A,,Overcast,340,2012-11-03 17:15:00
1:49 PM,46.4,39.2,76,29.53,10.0,NNW,6.9,-,N/A,,Overcast,330,2012-11-03 17:49:00
1:53 PM,46.9,39.0,74,29.54,10.0,NNW,9.2,-,N/A,,Overcast,330,2012-11-03 17:53:00
2:53 PM,46.0,39.0,76,29.55,10.0,WNW,8.1,-,N/A,,Overcast,300,2012-11-03 18:53:00
3:53 PM,46.9,39.0,74,29.56,10.0,WNW,4.6,-,N/A,,Overcast,300,2012-11-03 19:53:00
4:33 PM,46.4,39.2,76,29.55,10.0,WNW,4.6,-,N/A,,Overcast,300,2012-11-03 20:33:00
4:42 PM,46.4,39.2,76,29.55,10.0,WNW,3.5,-,N/A,,Overcast,300,2012-11-03 20:42:00
4:53 PM,46.9,39.9,77,29.57,10.0,WNW,4.6,-,N/A,,Overcast,300,2012-11-03 20:53:00
5:53 PM,46.0,39.9,79,29.58,10.0,West,5.8,-,N/A,,Overcast,280,2012-11-03 21:53:00
6:53 PM,45.0,39.9,82,29.59,10.0,WNW,6.9,-,N/A,,Overcast,300,2012-11-03 22:53:00
7:53 PM,45.0,39.0,80,29.59,10.0,WNW,6.9,-,N/A,,Overcast,290,2012-11-03 23:53:00
8:53 PM,44.1,37.9,79,29.60,10.0,West,8.1,-,N/A,,Overcast,280,2012-11-04 00:53:00
9:53 PM,43.0,37.9,82,29.61,10.0,West,8.1,-,N/A,,Overcast,280,2012-11-04 01:53:00
10:53 PM,43.0,37.0,80,29.60,10.0,West,6.9,-,N/A,,Overcast,280,2012-11-04 02:53:00
11:03 PM,42.8,37.4,81,29.59,10.0,Variable,6.9,-,N/A,,Overcast,0,2012-11-04 03:03:00
11:53 PM,44.1,37.9,79,29.60,10.0,West,5.8,16.1,N/A,,Overcast,280,2012-11-04 03:53:00